Wind_Speed
35 36 37 37 36 37 40 42 41 41 42 43 44 45 46 44 46 45 37 41 50 48 45 45 44 44 43 40 39 40 42 42 45 46 43 43 44 46 46 45 43 41 40 38 37 37 36 36 35 34 35 38 39 39 37 37 36 36 36 37 37 38 38 39 39 40 40 41 41 42 42 43 44 43 43 42 42 42 43 44 45 47 50 52 50 47
38 39 40 38 38 39 42 42 41 42 44 44 45 46 47 46 47 44 39 45 49 47 47 45 43 44 45 43 39 39 42 44 48 47 44 44 45 45 46 45 44 43 42 39 39 39 37 37 37 36 37 38 40 39 38 38 37 37 37 38 38 39 40 40 40 41 41 42 42 43 44 44 45 44 44 44 43 43 43 44 46 48 50 51 52 51
42 42 41 40 42 42 42 44 43 44 46 47 48 47 49 49 47 46 44 46 49 49 49 46 45 47 48 45 42 41 42 45 49 47 44 45 45 45 46 46 45 44 42 41 40 40 39 38 39 38 39 40 41 40 40 39 39 39 38 39 39 40 41 42 42 42 42 42 43 44 45 46 46 46 46 45 45 44 44 45 46 48 51 52 52 52
45 44 42 42 44 44 44 46 46 47 48 49 49 49 51 49 48 50 46 46 50 50 50 48 48 50 51 48 45 45 45 46 49 49 47 46 46 47 47 46 45 44 43 42 41 41 40 40 40 40 41 41 42 42 41 41 41 41 40 40 41 41 42 43 44 44 44 43 44 44 45 46 47 48 48 47 46 46 46 46 47 49 51 52 52 53
47 44 45 45 46 46 46 47 48 49 50 50 50 51 52 50 50 52 47 48 52 50 50 50 49 52 51 48 48 47 48 48 49 49 49 48 48 48 48 47 47 45 44 43 43 42 41 41 42 42 42 43 43 43 43 43 43 43 43 42 42 43 44 44 45 46 45 45 45 46 46 46 47 48 49 49 48 48 48 47 48 49 51 52 53 53
47 46 48 48 47 48 48 49 49 50 51 52 51 52 54 51 52 54 50 51 54 51 51 50 51 53 50 49 52 49 49 50 50 50 50 50 50 50 50 49 48 47 46 45 44 44 43 43 43 43 44 44 44 44 44 44 44 44 44 44 44 45 45 46 47 47 47 47 47 47 48 48 48 49 49 50 50 50 49 49 49 50 51 52 53 54
48 48 50 49 49 50 50 51 51 51 54 54 52 53 55 53 53 54 53 54 55 53 53 52 53 53 50 53 54 50 51 52 51 52 52 52 52 51 51 51 50 49 48 47 46 46 45 45 44 44 45 45 46 46 46 46 46 46 46 46 46 46 46 47 48 48 48 49 49 49 50 50 50 50 51 51 51 51 51 51 51 51 51 52 54 54
51 51 52 52 52 52 52 53 52 53 56 55 53 55 56 55 55 56 55 56 56 56 55 55 56 55 54 56 54 52 54 54 52 54 53 53 53 53 53 52 52 51 50 49 48 47 47 47 47 47 47 47 47 47 47 47 48 48 48 48 48 48 48 49 49 50 50 51 51 51 51 52 52 52 53 53 53 53 53 53 53 53 53 53 54 55
54 53 53 54 54 55 55 55 55 56 57 56 56 56 57 57 57 58 58 59 58 58 58 58 58 58 59 60 56 55 57 56 55 55 55 55 55 55 55 54 54 54 52 52 51 50 49 48 49 49 49 49 48 48 48 48 49 49 50 50 50 50 51 51 51 52 52 52 53 53 53 53 54 54 54 54 55 55 55 55 55 55 55 55 55 56
56 56 55 56 56 57 57 58 58 59 58 59 58 58 58 58 59 59 60 61 61 59 60 61 59 60 63 63 60 58 59 59 58 58 56 56 57 57 57 57 56 56 55 55 54 53 52 51 51 51 51 50 50 50 50 50 50 50 51 51 51 52 52 53 54 54 55 55 54 55 55 55 55 56 56 56 56 57 57 57 57 57 57 57 57 57
57 58 58 58 58 59 59 59 60 60 60 61 60 60 60 60 61 62 62 63 63 61 63 64 61 62 64 65 64 61 59 61 62 60 58 58 59 59 59 59 59 58 58 57 57 56 55 55 54 54 53 52 51 52 52 52 52 51 51 51 52 52 53 54 55 56 57 57 57 57 57 56 57 57 58 58 58 58 58 58 59 59 59 59 59 59
58 59 60 60 60 61 61 61 62 62 62 62 62 62 62 63 64 64 65 66 64 63 65 65 64 65 66 66 67 63 60 62 64 63 61 60 61 62 61 61 61 60 60 60 59 58 58 58 57 57 56 55 54 54 54 54 53 53 53 53 53 53 53 54 55 57 58 59 60 60 59 59 59 59 59 60 60 60 60 60 60 60 60 60 61 61
59 59 60 61 61 62 62 63 63 64 65 64 64 64 64 66 67 66 67 68 67 67 68 68 68 68 66 67 69 66 63 64 66 66 64 63 63 64 64 63 63 63 63 63 62 61 60 61 60 59 59 58 57 56 56 55 55 55 55 54 54 54 54 55 56 57 58 59 60 61 61 61 61 61 61 62 62 62 62 62 62 62 62 62 62 62
61 61 62 63 63 62 63 63 63 64 66 65 64 65 67 68 69 68 69 70 70 71 71 70 71 68 66 68 70 68 66 65 66 68 67 66 66 66 66 66 66 66 66 66 65 64 63 64 64 63 61 60 59 59 58 57 57 57 56 56 55 55 56 56 57 57 58 59 60 61 61 62 62 64 64 64 65 65 65 64 64 64 63 63 63 63
64 65 66 66 65 64 65 65 64 64 66 66 66 67 68 69 71 71 71 72 72 74 73 71 70 68 67 70 70 69 69 68 68 69 70 69 69 68 68 69 69 69 70 69 68 68 67 66 66 66 65 64 63 62 60 60 59 59 58 57 57 57 57 58 58 59 59 60 60 61 61 62 63 64 65 66 66 67 67 66 66 66 65 65 65 65
67 69 71 70 69 69 68 67 66 66 67 68 69 70 69 71 74 73 72 72 73 74 72 70 70 68 68 70 69 69 71 71 71 71 71 72 71 71 71 71 71 71 72 72 71 71 70 69 69 69 68 67 66 65 64 63 63 62 61 60 60 59 59 60 60 60 61 61 62 62 62 63 64 65 65 66 67 67 67 67 67 67 67 67 67 67
70 72 74 74 73 73 73 71 69 69 70 72 72 72 72 74 75 74 74 74 75 75 72 70 70 68 68 69 69 70 71 71 73 73 73 73 72 72 72 72 73 73 73 73 73 73 72 71 71 71 70 69 68 67 66 65 65 64 64 63 63 63 63 63 63 62 63 63 63 64 64 65 65 65 66 66 67 67 67 68 68 68 68 69 69 69
73 74 76 76 75 77 76 74 73 73 73 75 75 75 77 77 76 76 77 77 77 77 74 72 71 69 68 68 69 72 73 72 74 74 74 74 73 72 72 72 73 73 73 74 73 74 74 73 72 72 71 71 70 69 68 67 66 66 66 66 66 66 66 66 66 65 65 65 65 66 66 67 67 66 67 67 67 67 67 67 68 68 69 69 70 71
74 74 76 77 77 78 79 77 76 77 77 78 79 80 81 80 79 80 82 81 80 79 77 75 74 72 70 68 70 75 76 74 75 75 75 75 74 73 73 73 73 73 73 74 74 74 74 73 73 73 73 72 71 70 70 69 68 67 67 67 68 67 68 68 68 67 67 67 67 67 67 68 68 68 68 68 68 68 67 67 67 68 68 69 70 70
77 76 76 77 78 79 79 78 78 79 80 81 82 83 82 83 83 84 86 86 84 83 81 79 78 75 72 72 73 76 79 78 77 76 77 77 75 74 74 73 73 73 74 74 74 74 74 73 73 73 73 73 72 72 71 71 70 70 70 69 69 69 69 69 70 69 69 69 69 69 69 69 69 70 70 70 70 69 69 69 69 68 69 69 70 70
76 76 74 75 78 79 79 79 80 80 82 83 84 84 84 85 86 87 88 87 87 88 86 84 82 77 75 77 79 79 80 81 80 79 79 79 78 77 76 76 75 75 75 76 76 75 74 74 73 73 73 73 72 71 71 71 71 71 71 71 70 70 70 70 71 71 71 72 71 71 70 70 70 71 71 71 71 71 71 71 71 71 71 71 71 71
74 74 73 73 76 77 77 79 80 80 82 84 85 85 86 87 89 89 88 87 90 91 89 87 84 79 77 80 83 83 82 83 84 84 83 82 81 80 80 80 79 78 78 78 78 77 77 76 75 74 74 73 72 71 70 70 71 71 71 71 71 72 72 72 73 73 73 73 73 72 72 71 71 71 72 72 72 73 73 73 73 73 73 73 73 72
72 73 73 72 73 75 75 77 78 79 81 84 85 85 87 89 90 91 90 89 91 92 89 89 88 82 80 83 85 86 86 85 86 87 87 86 84 84 84 84 83 82 81 81 81 80 79 79 77 77 77 76 74 73 71 71 71 71 71 71 71 71 72 72 73 73 73 73 73 73 73 73 72 72 72 72 73 73 74 74 75 75 75 75 75 75
72 73 74 73 72 73 74 75 76 78 80 82 84 85 87 88 88 89 90 90 91 91 89 92 91 86 83 85 86 88 89 87 87 88 89 88 87 88 88 87 87 86 84 85 85 83 82 81 81 81 80 79 78 76 75 74 73 73 73 73 72 73 72 72 72 73 73 73 73 73 73 73 73 73 73 73 73 74 74 75 76 76 77 77 77 77
71 73 74 73 72 71 72 75 76 78 80 82 83 84 84 84 85 86 87 89 91 89 88 92 92 87 85 87 87 89 90 89 88 88 89 89 90 91 92 90 90 90 88 88 90 88 85 84 84 85 84 83 82 80 79 78 77 76 77 76 75 75 74 74 74 74 74 74 74 74 74 74 73 73 73 74 74 74 75 76 77 77 78 78 78 79
71 72 72 72 72 70 71 74 77 80 82 83 83 83 83 83 83 85 87 89 89 86 87 91 91 87 85 86 87 88 89 90 90 89 90 91 92 93 94 92 92 93 92 91 92 92 90 88 87 88 87 86 86 84 83 82 81 79 79 79 78 77 77 77 77 77 76 76 76 76 75 75 75 75 75 75 75 75 76 77 77 78 79 80 80 81
69 70 71 71 70 69 69 72 76 80 82 83 83 82 82 82 83 85 88 89 88 87 88 90 91 88 85 83 84 84 86 87 88 89 89 90 91 93 95 95 94 95 94 92 93 93 93 92 91 91 91 89 88 87 86 86 85 83 81 81 81 80 81 81 81 80 80 79 79 79 79 78 78 78 78 77 77 78 78 78 79 79 80 81 82 82
67 67 68 70 69 67 68 70 74 78 81 82 81 80 80 81 83 86 88 88 88 90 91 89 90 91 86 82 81 82 83 84 84 86 87 87 88 89 92 94 95 96 95 93 94 95 95 95 94 94 93 92 91 91 89 88 88 86 85 84 84 83 84 84 84 84 84 83 82 82 82 82 81 81 81 80 80 81 81 81 81 81 82 83 83 84
65 65 66 68 67 64 65 67 70 75 78 79 78 77 77 79 82 85 88 88 90 93 93 90 90 90 87 82 80 80 82 83 83 84 86 84 83 84 87 90 91 93 94 93 94 96 96 97 97 95 94 93 94 93 92 91 90 89 89 88 87 87 87 87 88 87 87 86 86 85 84 84 84 83 83 83 83 83 83 83 83 83 84 84 85 85
64 63 64 66 64 61 62 65 68 72 75 75 73 72 72 75 79 82 85 88 91 94 93 91 90 88 85 83 81 80 81 83 82 82 83 81 80 81 84 85 86 88 90 90 91 93 94 95 97 97 95 95 96 95 93 92 92 91 90 90 90 89 89 89 89 89 89 89 88 88 87 86 86 85 85 85 85 85 85 85 85 85 86 86 87 87
63 62 63 66 64 58 59 65 69 70 73 73 68 66 68 73 78 81 84 86 89 91 91 92 91 86 82 82 82 79 78 80 82 81 79 79 79 79 80 82 82 84 86 87 89 91 91 93 94 95 95 95 96 95 94 94 93 92 92 92 91 91 91 90 90 90 90 90 90 90 90 89 88 87 87 86 86 86 86 87 87 87 88 88 89 89
63 61 62 66 65 57 58 66 70 71 73 69 62 63 70 76 79 80 82 83 85 87 88 89 89 84 79 79 79 76 74 76 79 79 77 77 78 79 79 79 79 80 82 85 86 88 90 92 93 94 92 91 92 93 93 94 93 93 93 93 93 92 92 91 92 92 92 92 92 92 92 91 90 89 88 88 88 88 88 89 89 89 89 90 90 91
63 62 62 66 66 58 58 67 72 73 70 62 59 67 75 78 78 79 80 81 82 83 84 84 84 81 77 75 74 72 70 71 73 75 75 74 75 78 79 77 76 77 80 83 83 85 88 89 90 92 90 88 88 89 89 90 90 91 92 93 93 92 91 92 92 92 92 92 93 93 93 92 92 91 91 91 91 91 91 91 91 90 91 91 91 92
62 63 63 66 68 61 60 67 73 73 66 60 63 72 76 77 78 79 79 79 80 81 82 82 80 77 73 71 71 70 67 66 68 70 70 71 73 76 76 74 74 75 77 80 81 83 86 87 89 90 88 87 86 85 84 84 85 86 88 89 90 89 89 89 89 90 90 91 91 91 91 91 91 91 91 92 92 92 92 92 92 92 92 92 92 93
61 63 65 67 69 65 63 67 72 71 66 64 68 72 75 78 80 79 79 79 80 81 81 81 79 74 70 70 70 68 65 63 65 66 67 69 70 70 70 71 73 74 76 78 80 81 82 84 88 88 86 85 84 82 81 80 80 82 84 84 84 83 84 84 84 85 85 86 87 87 87 87 88 88 89 90 90 91 92 92 92 92 93 92 92 93
61 64 66 68 69 68 66 69 71 70 67 67 69 72 76 79 79 79 80 80 81 82 79 76 74 72 70 69 67 65 64 64 64 64 64 65 65 65 66 70 74 76 77 78 81 81 80 82 85 84 81 81 80 79 78 76 76 79 79 79 79 79 79 79 79 79 79 80 81 81 81 82 82 82 84 85 87 88 88 89 90 90 91 91 91 92
61 64 68 70 69 69 69 71 72 71 68 68 70 73 76 77 77 80 81 79 79 79 74 69 68 70 71 67 63 62 63 63 62 60 60 61 62 63 66 70 74 76 78 78 78 79 80 81 81 80 78 78 77 76 75 73 74 75 75 75 75 75 75 75 74 74 75 75 76 75 76 76 76 77 79 80 81 82 83 84 84 85 85 85 86 87
61 65 69 71 69 69 72 73 73 72 69 68 71 72 71 73 76 79 79 77 74 73 68 64 66 70 70 65 61 60 62 61 58 57 58 60 60 62 65 70 74 76 77 74 72 74 77 79 78 77 77 76 74 73 72 71 72 72 72 71 71 71 71 71 71 71 71 71 71 71 72 72 72 73 73 74 75 75 75 75 75 75 76 76 78 79
62 66 70 72 70 69 73 74 74 73 69 68 72 72 69 71 76 77 75 71 67 65 62 62 66 69 67 61 57 58 59 57 55 55 57 59 59 61 64 67 71 73 73 71 70 72 74 75 75 74 74 73 71 71 71 70 70 71 70 68 67 67 67 67 67 68 68 67 67 68 68 68 68 68 68 68 68 67 66 66 66 66 67 67 68 69
65 67 69 71 71 71 73 74 73 73 71 69 71 72 69 70 73 74 70 66 62 59 57 59 63 64 62 58 55 56 56 54 52 53 55 56 58 59 61 63 65 68 70 70 70 71 71 72 72 72 72 70 69 69 69 68 68 69 68 66 64 64 63 63 64 64 64 64 65 65 65 64 63 63 62 61 61 60 59 60 60 60 60 61 61 61
67 68 68 70 73 74 75 73 71 72 73 71 71 71 69 67 67 68 65 62 59 57 55 56 58 59 57 54 53 53 53 51 50 51 52 53 54 57 59 60 63 66 68 67 67 68 69 69 70 70 70 68 67 67 67 66 66 67 66 64 62 61 60 60 60 60 61 62 62 62 61 60 59 57 57 56 55 55 56 56 55 56 56 55 55 56
67 67 67 69 74 75 74 72 71 72 73 72 70 71 69 64 61 62 61 58 56 55 55 55 55 55 54 51 48 49 49 48 48 49 49 50 52 56 59 59 61 63 65 64 63 66 67 67 67 68 68 66 65 64 64 64 65 64 63 61 59 57 57 57 57 58 59 60 60 59 57 55 55 54 53 53 53 53 54 53 52 52 51 51 52 53
67 67 66 68 73 76 73 70 68 69 70 69 67 66 64 60 58 58 57 54 52 52 53 52 52 52 51 48 46 46 46 46 46 48 49 50 52 56 57 57 58 62 64 63 63 64 64 64 65 66 65 63 62 61 61 62 62 62 60 58 56 54 54 55 56 57 59 59 57 56 54 53 52 52 51 51 51 51 50 49 48 48 47 48 48 49
66 69 68 67 71 74 72 68 66 65 65 64 61 58 57 56 56 56 55 53 51 49 49 49 50 49 48 47 45 43 43 45 47 48 49 50 51 54 54 55 57 60 62 61 61 62 62 61 61 62 61 59 58 57 58 59 60 59 57 54 52 52 52 54 56 57 58 57 55 53 52 51 50 49 49 49 49 47 46 45 44 44 44 44 45 45
66 69 69 67 68 69 67 65 64 62 59 57 54 52 52 53 53 54 53 52 51 47 45 46 47 45 44 45 44 41 42 45 47 48 49 50 52 53 54 56 58 59 59 59 60 61 61 59 58 58 57 55 53 52 54 57 58 56 54 51 49 50 52 53 55 57 56 54 52 51 50 49 48 46 46 46 44 43 42 42 42 42 41 40 39 40
68 68 68 66 65 63 60 60 60 57 53 51 50 49 49 50 51 51 51 50 49 46 43 43 43 42 41 43 42 41 42 45 47 48 49 50 52 54 55 56 56 57 58 58 59 60 59 57 55 54 53 51 49 49 53 57 57 53 49 47 47 49 52 53 55 55 54 51 50 49 48 47 45 43 43 42 41 40 40 40 39 38 37 35 35 36
69 67 64 62 61 57 54 55 55 52 48 48 48 47 48 49 48 47 47 47 46 43 41 40 40 39 39 41 41 40 41 44 46 47 48 50 53 54 55 54 54 55 55 56 56 57 56 54 53 51 49 47 47 49 53 56 54 48 44 45 47 49 51 53 54 54 52 49 47 46 45 44 42 41 40 39 39 38 38 37 36 33 32 31 32 34
69 64 59 59 57 51 49 51 51 47 44 45 46 46 46 47 46 44 43 43 42 40 38 37 37 37 38 38 38 38 40 43 45 45 47 50 53 54 53 53 53 53 54 54 55 55 54 53 51 48 46 45 47 50 54 55 50 44 42 45 48 49 51 52 53 52 49 46 44 43 42 41 40 39 38 37 37 36 35 33 31 29 28 29 31 32
64 58 55 56 52 47 47 50 48 44 42 44 45 45 45 45 43 41 41 41 39 37 36 35 36 36 37 37 36 37 39 42 44 44 46 48 50 50 50 51 52 52 53 54 54 53 52 51 48 46 45 45 48 52 54 52 47 42 42 45 47 48 50 52 51 49 45 43 42 41 40 39 38 37 36 35 35 33 31 29 27 26 27 29 30 30
56 52 51 51 47 45 47 48 45 42 43 43 43 43 44 43 40 39 39 39 38 36 34 33 35 36 36 35 35 36 40 42 43 43 44 45 46 46 46 48 50 51 52 53 52 51 50 48 47 46 45 46 48 52 52 49 45 42 43 45 47 48 50 50 48 45 42 41 41 40 38 37 36 35 34 33 32 30 28 27 26 25 27 28 29 28
50 48 47 46 45 45 48 47 42 40 43 43 41 41 41 39 38 38 38 37 36 34 32 33 35 35 35 35 36 38 40 42 42 43 43 44 44 45 46 48 50 51 52 51 49 48 47 46 45 45 45 47 49 50 49 46 43 43 44 46 47 48 49 48 45 42 40 39 39 38 37 35 33 32 31 30 29 28 26 25 25 25 26 27 27 26
Wind_Direction
245 244 244 244 246 246 247 248 248 249 248 247 247 247 248 247 248 248 244 244 249 251 249 246 245 247 247 241 236 243 251 252 252 253 252 252 254 255 255 256 257 256 255 254 253 251 250 249 247 244 244 248 250 250 250 250 251 249 248 247 245 244 241 238 236 234 233 234 235 236 236 237 236 236 235 235 235 235 233 230 229 229 231 233 230 223
247 245 245 245 245 244 246 247 247 247 248 247 247 247 249 248 248 248 244 245 248 249 249 247 245 246 247 245 239 241 249 254 255 253 253 254 254 256 257 257 257 256 256 254 253 253 251 250 249 247 246 248 251 251 250 250 250 249 248 247 246 245 244 241 239 237 235 234 233 234 235 237 238 238 237 236 235 235 235 233 230 230 231 233 234 230
249 247 246 246 246 246 246 248 246 246 246 247 247 247 250 249 250 250 244 246 250 249 249 248 247 248 248 248 245 243 247 253 256 255 253 255 255 256 256 256 256 256 256 254 253 253 252 251 251 249 248 249 251 252 251 250 250 249 248 247 246 246 245 244 242 240 238 236 235 234 233 234 236 237 238 238 237 236 235 235 233 231 232 233 234 234
249 249 248 248 248 247 248 249 248 248 247 247 247 248 249 248 250 251 245 247 250 250 251 249 248 250 250 250 249 248 247 249 255 256 255 254 255 256 256 256 256 255 255 254 253 253 251 251 251 251 250 250 251 252 251 251 250 250 249 248 247 246 246 246 245 244 241 239 238 237 235 234 234 236 237 237 238 237 237 236 235 234 233 233 233 234
248 249 250 249 249 249 249 249 250 250 249 249 249 249 249 248 250 251 246 249 251 249 251 249 248 251 251 251 250 249 250 250 252 255 256 255 255 255 256 257 257 257 256 255 254 253 251 250 250 251 251 251 251 252 251 252 251 250 250 249 248 247 246 246 246 246 244 243 241 240 239 237 236 236 236 237 237 237 237 236 236 236 235 234 233 233
249 249 250 250 250 251 250 250 251 252 252 251 250 252 252 249 250 251 247 249 251 250 250 250 249 250 250 252 251 250 251 251 252 253 254 255 255 256 256 257 257 257 257 255 255 255 254 252 250 250 251 251 251 252 252 252 251 251 250 249 249 248 248 248 248 247 246 246 244 242 241 240 239 239 238 238 237 236 236 236 236 236 236 235 234 233
251 250 251 250 250 251 251 251 251 252 253 251 250 252 254 252 251 253 250 249 250 250 250 250 251 250 249 251 252 252 253 253 253 254 254 255 256 257 257 257 258 257 257 256 255 254 254 254 252 251 251 251 251 251 252 252 252 251 251 250 249 249 249 249 249 248 248 247 246 245 244 242 241 240 240 239 239 238 237 236 236 236 236 236 236 235
252 250 251 251 250 251 251 251 251 252 253 252 251 251 253 253 253 253 253 251 251 250 251 252 253 253 251 252 252 253 255 254 254 254 254 255 256 257 257 258 258 258 257 257 256 255 254 253 253 252 251 251 251 252 252 252 252 252 251 251 250 250 250 250 250 249 249 248 247 246 245 244 243 241 241 240 240 239 238 237 236 236 236 235 236 236
255 253 252 252 251 251 251 251 251 251 252 252 252 252 253 254 254 253 254 254 253 252 252 252 253 255 254 253 253 253 255 256 255 255 255 255 256 257 257 257 258 258 258 258 258 257 256 255 254 253 252 251 251 251 252 252 252 252 252 251 251 251 251 250 250 250 249 248 248 247 246 245 245 244 243 241 241 240 240 239 238 236 236 235 235 236
257 256 255 254 253 252 252 252 251 251 252 252 252 252 253 253 254 254 254 254 253 253 254 253 253 255 256 255 253 252 255 256 256 255 255 256 256 257 257 258 258 259 259 259 259 259 258 257 256 255 254 252 252 251 252 252 252 252 252 252 252 252 251 251 251 251 251 250 248 248 247 246 245 245 245 244 242 242 241 240 240 238 237 236 235 235
258 257 256 256 255 255 254 254 254 253 253 253 253 253 253 253 253 253 253 253 253 253 254 253 252 254 256 256 254 252 253 256 257 256 256 257 258 258 258 258 259 259 259 259 259 259 259 258 258 257 256 255 253 253 252 252 252 252 252 252 252 252 253 252 252 252 252 251 250 248 248 246 245 245 245 245 244 243 242 241 241 240 239 238 236 235
258 258 257 257 256 256 256 255 255 255 254 254 254 254 254 254 254 253 253 253 253 253 253 253 252 252 253 255 256 254 253 256 258 258 257 257 258 258 258 258 259 259 259 260 259 259 259 259 258 258 257 256 254 254 253 252 252 252 251 251 251 252 253 253 253 252 252 251 250 249 248 247 246 245 245 245 245 244 244 243 242 241 241 240 239 237
259 259 259 258 257 256 256 256 256 256 256 256 255 255 255 255 255 254 254 254 253 252 252 252 252 251 252 255 256 255 254 255 258 258 258 257 257 258 258 258 258 259 259 260 260 259 259 259 258 258 257 256 255 254 254 253 253 253 252 251 251 251 252 253 253 253 252 252 251 250 249 248 247 246 245 245 245 245 244 244 243 242 241 241 241 240
260 260 259 258 258 257 257 257 257 257 257 257 257 257 256 256 256 255 254 254 254 253 252 252 252 253 254 255 256 256 255 255 256 258 258 257 257 257 258 258 258 259 259 259 259 259 259 259 259 258 258 257 256 255 255 254 254 254 254 253 252 251 252 252 252 253 253 253 252 251 250 249 248 247 246 245 245 245 244 244 244 244 243 242 241 241
260 260 259 258 258 257 257 257 257 257 258 258 257 256 256 257 257 255 254 254 254 254 254 254 255 255 254 255 257 258 258 256 256 257 258 258 257 257 258 258 259 259 259 259 258 258 258 258 258 258 258 258 258 257 256 255 254 253 253 253 253 252 252 252 252 253 253 253 252 252 251 250 248 248 247 246 246 246 245 245 244 244 244 244 243 242
260 260 260 259 258 257 256 256 256 257 258 258 257 257 256 256 257 256 256 256 256 256 256 256 256 256 255 255 256 257 258 258 257 257 257 258 258 258 258 258 259 259 259 259 259 258 257 257 257 257 257 257 258 258 257 256 255 254 253 253 253 253 253 253 253 253 253 253 253 252 252 251 250 249 248 247 247 247 246 246 246 245 245 245 245 244
260 260 260 260 260 259 258 257 257 257 257 257 257 257 257 256 257 257 257 257 257 257 257 256 256 256 256 257 257 257 256 257 257 257 256 257 257 257 258 258 259 259 259 259 259 259 258 257 257 257 257 257 257 257 258 257 257 256 255 254 254 253 253 254 253 253 253 253 253 253 252 252 251 250 249 248 247 247 247 247 246 246 246 246 246 245
261 261 261 261 260 261 260 259 259 258 257 258 258 258 257 257 257 258 258 257 257 257 257 257 257 256 255 257 258 258 257 257 257 257 257 257 257 257 257 258 258 259 259 259 260 260 259 259 258 258 257 257 256 257 257 257 256 256 256 255 254 254 254 254 254 254 254 254 253 253 253 252 252 251 250 250 249 248 247 247 247 246 246 246 246 246
261 261 262 262 262 261 261 261 260 259 258 259 259 258 258 258 258 258 258 257 257 257 257 257 257 256 255 255 256 258 258 257 257 258 258 258 257 257 258 258 258 259 260 260 260 260 260 260 259 259 258 258 257 256 256 257 256 256 256 256 255 254 254 255 255 255 255 255 254 254 253 253 252 252 251 251 250 249 248 247 247 246 246 246 246 246
262 261 262 263 263 263 263 262 262 261 260 259 259 259 259 260 259 259 259 258 258 258 257 256 256 256 256 256 255 256 258 258 257 257 258 258 258 258 258 258 258 259 260 260 260 260 260 260 260 259 259 258 258 257 257 258 258 257 257 256 255 255 255 255 255 255 255 255 255 255 254 253 253 252 252 251 251 250 250 249 248 247 247 246 246 246
263 262 262 263 263 263 264 264 263 262 262 261 260 260 260 260 260 259 259 260 260 259 258 257 256 255 256 256 256 255 257 258 258 257 257 258 259 258 258 258 257 257 258 259 259 260 260 260 260 260 260 260 259 259 259 259 259 258 258 257 257 256 256 256 256 255 256 256 256 256 255 254 253 252 252 251 251 251 250 250 249 248 248 247 247 246
265 264 263 262 263 263 263 263 263 263 263 263 262 262 261 260 260 260 259 260 261 260 260 259 258 256 256 256 257 256 256 257 259 259 258 257 257 258 258 258 257 257 256 257 258 258 259 260 260 261 260 260 260 259 259 259 259 258 258 258 257 257 257 256 256 256 256 256 257 257 256 255 254 253 253 252 251 251 251 250 250 249 249 248 248 247
267 267 265 263 263 263 263 263 263 263 263 263 262 262 262 261 261 261 261 260 260 261 262 262 261 258 257 257 257 257 256 256 257 258 259 258 258 258 258 257 257 257 257 257 257 257 258 259 259 260 260 260 260 259 259 259 258 258 258 258 258 257 257 257 256 257 257 257 257 257 256 256 255 254 254 253 252 252 251 251 250 250 250 249 249 248
267 267 266 264 264 264 264 264 264 264 264 263 263 262 262 263 263 263 263 262 261 261 262 262 261 260 258 258 257 257 257 256 256 257 258 259 259 259 258 258 258 257 257 258 258 257 257 258 258 259 259 260 260 259 259 258 258 258 258 258 258 258 258 257 257 257 257 257 257 256 256 256 255 255 254 254 253 253 252 252 251 251 250 250 250 249
269 268 267 266 264 263 264 264 264 264 264 264 264 264 264 265 265 265 264 264 263 262 262 262 261 259 258 258 257 258 258 258 257 258 258 259 259 259 259 258 258 258 257 257 258 258 257 257 257 258 258 259 259 259 259 258 258 258 259 259 258 259 259 258 258 258 258 258 257 257 257 256 256 255 255 254 254 253 253 252 252 251 251 251 250 250
270 269 269 268 267 265 265 264 264 263 263 263 264 264 265 265 266 266 266 265 265 265 264 263 262 260 259 258 258 258 259 259 258 258 258 259 259 260 260 259 259 259 258 257 258 258 258 257 257 257 258 258 259 259 259 259 258 258 258 259 259 260 260 260 260 259 259 259 259 258 258 257 257 256 256 255 254 254 253 252 252 252 251 251 251 250
270 269 269 269 268 267 266 265 265 265 264 264 264 264 265 266 266 267 266 266 267 267 265 265 265 263 261 260 260 259 259 259 259 259 258 258 259 260 261 261 260 259 259 259 259 259 259 258 258 258 258 258 258 259 259 259 259 259 259 259 260 260 261 261 261 261 260 260 260 259 259 259 258 257 257 256 255 254 254 253 252 252 251 251 251 250
270 270 269 269 268 267 267 266 266 266 266 266 266 266 266 267 267 267 267 268 268 267 265 265 266 265 264 262 262 262 262 261 260 260 258 257 257 258 259 260 260 260 260 260 260 259 259 259 258 258 258 259 259 259 258 258 259 260 260 260 260 260 261 261 262 262 261 261 261 260 260 259 259 258 258 257 256 255 255 254 253 252 251 251 251 250
272 271 270 269 268 268 267 267 266 266 266 266 266 266 266 267 267 267 268 268 268 267 266 265 265 265 265 265 263 263 263 262 260 259 258 257 256 257 257 258 259 260 259 259 259 259 259 259 259 258 258 258 259 259 259 259 259 259 260 260 260 260 260 261 261 262 262 262 262 261 261 260 259 259 258 258 257 256 256 255 254 253 253 252 251 251
274 274 272 271 270 270 269 269 267 266 266 265 265 266 266 266 266 266 266 266 266 266 267 266 266 265 266 266 265 263 263 262 261 260 260 259 258 257 258 258 258 259 260 260 259 258 258 258 259 258 258 258 258 259 259 259 259 259 259 260 260 260 260 260 261 261 262 262 262 262 261 261 260 260 259 259 258 258 257 256 255 254 254 253 252 251
277 276 275 274 272 271 271 270 268 267 267 266 266 268 269 267 265 263 263 263 264 265 266 267 267 267 267 266 265 264 263 263 263 262 262 261 260 259 258 258 258 259 259 260 261 261 260 258 258 257 257 257 258 259 259 259 260 260 260 260 260 260 260 261 261 262 262 262 262 262 262 262 261 261 260 260 259 259 258 257 256 256 255 254 253 252
279 278 276 275 273 272 271 270 268 267 267 268 271 272 270 266 264 263 263 264 264 265 266 267 268 269 268 267 266 264 262 261 261 261 260 260 260 259 257 257 257 258 259 259 260 261 262 261 259 258 256 256 257 258 258 259 259 260 260 260 260 260 261 261 262 262 262 263 263 263 263 263 262 262 261 261 260 260 259 258 257 256 256 255 254 253
280 278 277 275 274 272 270 269 269 268 269 272 274 270 267 267 267 267 267 268 268 268 268 269 269 269 269 267 266 264 261 259 258 258 258 257 256 256 256 255 255 256 257 258 259 260 261 262 261 260 258 256 256 256 257 258 259 259 260 260 261 261 262 262 262 263 263 263 263 263 263 263 263 263 262 262 261 261 260 259 258 257 257 256 255 255
280 279 277 275 275 273 270 269 270 271 273 274 271 268 269 270 271 271 271 271 271 271 272 271 271 270 270 269 267 264 262 259 257 256 255 254 253 253 254 254 253 253 254 255 257 258 259 260 260 260 260 258 257 256 256 257 258 259 259 260 261 261 262 262 263 263 263 263 264 264 264 264 264 264 263 263 262 262 261 261 260 259 258 257 257 256
279 278 277 276 276 275 273 271 272 274 275 274 272 271 272 271 271 272 273 273 273 272 272 272 272 272 271 269 267 265 263 260 256 254 252 251 251 251 252 253 251 250 250 251 252 253 255 257 259 259 260 261 260 259 258 258 258 258 259 259 260 261 261 262 262 262 263 263 264 264 264 264 264 264 264 264 263 263 262 262 261 261 260 259 258 258
279 278 277 277 277 277 276 275 275 275 275 274 274 273 272 272 273 274 274 273 273 273 272 272 273 274 272 269 267 265 262 259 256 253 251 251 250 250 249 249 249 249 248 248 250 251 253 255 257 259 260 261 261 261 260 260 259 259 259 259 260 260 261 262 262 262 263 263 263 263 263 263 264 264 263 263 263 263 263 262 262 261 261 261 260 259
280 279 278 278 278 279 278 277 277 277 277 276 274 273 273 275 275 275 274 273 273 273 273 273 274 272 270 267 265 262 260 258 255 254 252 249 248 247 246 246 247 248 248 248 250 253 254 255 257 258 259 260 261 261 261 262 261 261 260 260 261 261 261 262 262 262 262 262 263 263 263 263 263 263 263 262 262 262 262 262 261 261 261 260 260 260
280 279 278 278 279 280 280 279 279 279 278 278 277 275 276 276 276 275 274 273 273 274 275 275 272 269 267 265 263 260 258 257 255 254 251 247 245 243 243 244 246 247 248 249 250 251 253 254 255 257 258 259 261 262 262 263 263 263 262 262 261 262 262 262 262 262 262 262 263 263 263 263 263 263 262 262 262 262 262 262 262 261 260 260 259 259
279 279 279 280 280 281 281 281 281 281 281 281 280 279 279 278 277 276 275 275 275 275 274 272 268 266 266 264 262 260 258 256 254 252 249 246 244 242 241 243 245 248 249 249 248 248 251 253 254 256 257 259 260 261 262 262 263 264 264 263 263 262 262 262 263 263 263 263 263 263 263 263 263 263 263 264 264 265 265 264 263 262 261 260 259 259
281 280 281 282 283 282 281 281 282 283 284 283 281 281 280 278 277 277 278 278 277 275 271 268 265 265 265 264 261 258 257 254 251 249 247 245 244 243 242 242 244 246 248 248 248 248 250 252 254 255 257 258 259 260 261 262 263 264 264 264 264 263 263 263 263 263 263 263 263 263 264 264 265 266 266 267 268 268 267 266 265 264 262 261 260 259
282 282 283 284 285 284 283 283 284 285 285 285 284 283 281 279 278 279 279 279 277 274 271 268 266 265 263 261 259 257 255 252 249 247 246 244 244 243 241 240 242 244 246 247 248 249 249 250 252 254 256 257 258 259 260 261 262 263 264 265 264 264 264 264 264 264 263 263 264 265 266 267 269 270 270 271 271 270 269 267 266 264 264 263 262 260
281 282 284 284 284 283 283 284 285 285 284 284 283 282 281 281 280 279 278 276 275 273 270 267 266 264 262 259 256 254 252 250 247 244 242 241 240 240 240 240 240 243 245 246 246 247 248 249 250 252 254 256 257 258 260 261 262 263 264 264 265 265 265 264 263 263 264 264 265 267 269 271 273 274 274 274 273 272 270 268 267 265 265 264 262 260
283 284 283 283 283 283 282 283 283 282 282 281 281 281 282 282 280 277 276 274 271 269 266 264 263 262 262 259 255 250 248 246 243 240 239 237 237 238 239 239 239 241 243 244 244 246 247 248 249 251 253 254 255 257 259 260 261 262 263 264 265 265 264 263 263 263 264 266 268 271 273 274 276 276 276 275 273 271 270 268 267 265 264 262 261 260
285 285 283 283 282 283 284 284 284 282 281 281 281 281 281 280 278 276 276 274 271 267 266 264 262 260 259 257 253 249 245 242 239 237 235 234 235 236 236 236 237 238 241 243 245 246 247 247 248 250 252 253 254 256 257 259 260 261 262 263 263 263 261 261 261 263 265 267 270 273 275 276 277 276 275 273 271 270 269 268 266 264 262 260 260 259
285 285 283 282 282 282 284 284 283 281 280 280 279 277 275 275 274 273 272 271 269 267 264 263 261 259 257 254 251 246 242 239 236 234 232 231 232 233 233 233 234 237 239 241 243 245 247 248 248 250 251 252 253 254 256 257 258 259 261 262 261 260 259 259 261 263 265 268 271 273 275 276 276 274 272 270 269 269 267 265 263 261 260 259 258 257
286 284 283 284 283 283 284 284 282 280 279 277 275 273 271 270 268 268 268 267 267 266 263 261 259 257 255 253 249 244 239 236 234 232 231 230 229 231 232 233 234 236 238 240 242 244 247 248 249 250 251 252 252 252 253 255 257 259 261 261 259 257 257 258 260 263 266 269 271 273 274 275 274 273 271 269 268 266 264 262 260 258 258 256 254 252
285 283 284 285 284 284 284 282 279 277 277 276 274 272 270 268 267 266 267 267 266 265 263 261 258 255 252 250 247 242 237 235 234 232 230 229 228 229 232 234 235 236 238 240 242 244 247 248 249 250 251 251 251 250 251 255 258 260 259 258 256 255 255 257 260 263 266 269 270 272 273 273 272 271 269 267 265 263 261 259 258 256 254 252 249 248
284 284 286 285 284 284 283 279 275 275 275 274 272 270 269 268 267 267 266 265 264 263 261 259 256 253 249 247 245 241 235 233 233 231 229 229 229 230 232 233 235 237 239 240 242 245 247 249 249 249 249 248 248 248 250 254 258 259 256 254 253 253 254 256 259 262 266 269 270 271 272 272 270 268 266 264 262 259 258 257 255 252 249 246 245 245
283 285 286 284 283 284 281 276 274 274 272 269 268 268 267 266 266 266 265 264 262 260 258 256 253 250 247 244 242 237 233 231 231 229 229 230 232 233 234 234 235 237 238 240 242 244 246 248 248 247 246 246 246 246 249 254 258 257 253 251 251 252 253 256 259 263 266 268 270 271 271 270 268 265 263 260 258 256 255 253 250 246 242 241 241 242
284 285 284 282 283 282 277 274 273 273 270 268 266 266 265 266 266 265 263 262 260 257 255 252 249 246 244 242 238 233 229 229 228 227 227 229 231 233 234 234 236 237 238 240 242 244 245 246 246 246 245 245 245 247 249 253 256 254 250 248 248 250 253 256 260 263 266 268 269 270 269 267 264 262 259 256 254 252 251 248 244 239 237 237 239 240
285 284 282 282 280 276 273 272 271 271 270 268 267 266 266 266 265 263 260 259 258 256 252 249 246 244 241 237 233 228 226 226 226 226 225 226 227 228 229 231 233 235 237 239 241 243 244 245 245 245 244 243 244 247 249 252 252 250 247 246 247 249 252 256 260 263 265 267 268 268 267 264 261 258 254 251 249 248 246 242 238 235 234 234 236 237
Height
10610 10610 10611 10612 10614 10615 10614 10613 10616 10618 10618 10618 10618 10618 10618 10620 10619 10621 10630 10628 10621 10623 10627 10628 10629 10630 10631 10634 10637 10637 10636 10636 10634 10634 10636 10638 10638 10638 10638 10640 10642 10645 10647 10649 10651 10653 10654 10656 10658 10660 10660 10659 10659 10660 10662 10663 10664 10665 10666 10668 10668 10669 10671 10673 10674 10676 10678 10680 10682 10683 10684 10686 10688 10690 10692 10694 10696 10698 10700 10702 10704 10707 10708 10709 10712 10715
10606 10606 10606 10609 10610 10610 10609 10610 10612 10613 10613 10613 10613 10613 10614 10615 10615 10619 10624 10621 10618 10620 10621 10623 10626 10625 10625 10628 10632 10633 10633 10631 10627 10628 10632 10633 10633 10633 10634 10635 10637 10639 10641 10644 10646 10647 10650 10652 10653 10654 10655 10655 10654 10656 10657 10659 10660 10661 10662 10663 10664 10665 10666 10668 10669 10671 10674 10676 10677 10679 10680 10681 10683 10685 10687 10689 10691 10693 10695 10697 10699 10702 10703 10704 10706 10709
10601 10601 10603 10605 10605 10605 10606 10606 10607 10607 10607 10607 10607 10609 10608 10609 10612 10613 10617 10616 10614 10615 10616 10619 10621 10620 10620 10623 10626 10628 10628 10626 10622 10624 10627 10627 10628 10628 10628 10629 10631 10634 10636 10639 10641 10642 10644 10646 10647 10649 10650 10650 10650 10651 10652 10654 10655 10656 10657 10658 10659 10660 10661 10662 10664 10666 10668 10671 10672 10674 10675 10677 10678 10680 10682 10683 10686 10688 10690 10692 10694 10696 10697 10699 10702 10704
10595 10597 10600 10600 10600 10601 10602 10601 10602 10602 10602 10602 10603 10604 10603 10606 10608 10606 10611 10612 10608 10610 10611 10614 10616 10613 10614 10618 10621 10622 10622 10621 10619 10619 10622 10622 10622 10622 10622 10624 10626 10629 10631 10633 10636 10637 10639 10641 10642 10643 10644 10645 10645 10646 10647 10649 10650 10651 10652 10654 10655 10656 10656 10657 10658 10660 10663 10665 10667 10669 10670 10672 10673 10675 10677 10678 10681 10683 10685 10687 10689 10690 10692 10695 10697 10699
10591 10594 10595 10594 10596 10597 10597 10597 10597 10596 10597 10598 10599 10599 10598 10602 10602 10600 10607 10606 10602 10606 10606 10608 10610 10607 10609 10614 10614 10616 10616 10616 10616 10615 10616 10617 10617 10617 10617 10619 10621 10623 10625 10628 10630 10631 10633 10634 10636 10637 10638 10639 10640 10641 10643 10644 10645 10646 10647 10648 10650 10651 10652 10653 10653 10655 10658 10660 10662 10663 10665 10667 10668 10670 10671 10673 10675 10677 10679 10682 10683 10685 10687 10689 10692 10694
10588 10591 10588 10589 10591 10591 10591 10592 10592 10592 10592 10592 10594 10594 10593 10597 10597 10596 10601 10600 10597 10601 10601 10603 10603 10601 10606 10608 10606 10610 10610 10610 10611 10611 10611 10611 10611 10612 10613 10614 10615 10617 10619 10621 10624 10625 10627 10628 10630 10632 10632 10634 10635 10636 10637 10638 10639 10641 10642 10643 10645 10646 10647 10648 10648 10650 10652 10654 10656 10658 10659 10661 10663 10664 10665 10667 10669 10671 10674 10676 10678 10679 10681 10683 10686 10688
10583 10585 10583 10584 10586 10585 10586 10586 10587 10587 10585 10586 10590 10589 10587 10591 10592 10591 10594 10594 10593 10595 10596 10597 10596 10597 10602 10600 10599 10605 10604 10604 10606 10606 10606 10606 10607 10607 10607 10608 10610 10611 10613 10615 10617 10619 10620 10622 10624 10625 10626 10627 10629 10630 10632 10633 10634 10635 10636 10638 10639 10640 10642 10642 10643 10644 10646 10648 10649 10651 10653 10654 10657 10658 10659 10661 10663 10665 10667 10669 10671 10673 10675 10677 10679 10682
10576 10577 10577 10578 10579 10579 10579 10580 10581 10580 10578 10581 10584 10583 10582 10585 10586 10586 10587 10587 10588 10590 10591 10592 10590 10592 10595 10592 10596 10600 10597 10598 10601 10600 10601 10602 10602 10602 10602 10603 10604 10605 10608 10609 10611 10613 10614 10616 10617 10618 10620 10621 10623 10625 10626 10627 10628 10629 10630 10632 10633 10635 10636 10637 10638 10638 10640 10641 10643 10644 10646 10648 10650 10651 10653 10655 10656 10658 10660 10662 10664 10667 10669 10671 10673 10675
10568 10570 10572 10571 10572 10573 10573 10573 10574 10573 10572 10575 10576 10577 10578 10578 10579 10580 10580 10580 10581 10584 10585 10585 10586 10586 10586 10586 10591 10594 10591 10592 10594 10594 10596 10596 10596 10597 10596 10597 10598 10599 10602 10603 10604 10606 10608 10610 10611 10612 10613 10615 10617 10619 10621 10621 10622 10623 10624 10625 10627 10628 10629 10630 10631 10632 10633 10634 10636 10638 10640 10641 10643 10645 10647 10648 10650 10651 10653 10655 10657 10660 10662 10665 10667 10669
10562 10563 10565 10565 10565 10566 10566 10566 10566 10566 10567 10568 10569 10571 10572 10572 10572 10572 10572 10572 10574 10577 10577 10577 10580 10580 10577 10578 10584 10586 10586 10585 10586 10588 10590 10591 10591 10591 10591 10592 10592 10593 10595 10596 10598 10599 10601 10603 10603 10605 10606 10608 10611 10613 10614 10615 10616 10617 10618 10619 10621 10622 10623 10624 10625 10626 10626 10627 10629 10631 10633 10635 10637 10638 10640 10642 10643 10645 10647 10649 10650 10653 10655 10657 10660 10662
10555 10556 10557 10558 10558 10559 10559 10559 10559 10560 10561 10561 10563 10564 10564 10565 10564 10564 10564 10563 10566 10571 10569 10568 10574 10573 10569 10570 10573 10578 10581 10579 10578 10581 10585 10585 10584 10585 10586 10586 10586 10587 10588 10589 10591 10593 10594 10595 10596 10598 10599 10601 10604 10606 10606 10608 10609 10611 10612 10613 10615 10616 10617 10618 10618 10619 10619 10620 10622 10624 10626 10628 10630 10632 10633 10634 10636 10638 10640 10642 10643 10645 10648 10650 10653 10655
10548 10548 10549 10550 10551 10551 10552 10552 10552 10553 10554 10554 10556 10556 10557 10556 10555 10555 10556 10555 10559 10562 10560 10561 10564 10562 10562 10563 10563 10570 10576 10572 10570 10574 10577 10579 10579 10578 10580 10580 10580 10581 10582 10582 10584 10586 10587 10588 10589 10590 10592 10594 10596 10598 10599 10601 10603 10604 10606 10607 10608 10610 10611 10611 10611 10612 10612 10612 10614 10616 10619 10621 10623 10625 10626 10627 10629 10630 10632 10634 10636 10638 10640 10643 10645 10647
10540 10541 10542 10541 10542 10543 10544 10544 10545 10545 10545 10546 10549 10549 10549 10547 10545 10548 10548 10547 10551 10552 10550 10552 10551 10553 10558 10556 10554 10561 10567 10566 10564 10565 10568 10572 10572 10571 10572 10573 10573 10574 10575 10575 10576 10578 10580 10580 10581 10582 10584 10586 10588 10589 10591 10594 10595 10597 10599 10600 10602 10603 10604 10604 10604 10604 10605 10605 10607 10609 10611 10613 10615 10617 10619 10620 10621 10623 10624 10626 10628 10631 10633 10635 10638 10640
10533 10533 10533 10532 10534 10536 10536 10537 10538 10538 10536 10539 10542 10541 10540 10538 10536 10540 10540 10537 10540 10539 10540 10543 10542 10549 10555 10550 10548 10553 10557 10560 10559 10557 10559 10562 10563 10564 10564 10565 10566 10566 10566 10567 10568 10570 10572 10572 10572 10574 10576 10578 10579 10581 10584 10586 10588 10589 10591 10593 10595 10596 10596 10596 10596 10597 10597 10598 10599 10601 10603 10606 10607 10608 10610 10612 10613 10615 10617 10619 10621 10623 10626 10628 10630 10633
10525 10523 10522 10523 10525 10527 10527 10528 10530 10530 10529 10531 10532 10530 10531 10529 10525 10528 10529 10529 10530 10528 10531 10537 10538 10545 10548 10543 10545 10547 10547 10552 10553 10550 10550 10552 10554 10555 10556 10556 10557 10558 10557 10558 10560 10561 10564 10564 10564 10566 10568 10570 10571 10573 10576 10578 10579 10581 10583 10585 10587 10589 10589 10588 10589 10589 10590 10591 10592 10593 10595 10597 10598 10600 10602 10604 10605 10607 10609 10611 10614 10616 10618 10621 10623 10625
10517 10514 10511 10512 10516 10516 10517 10520 10522 10524 10523 10521 10521 10521 10523 10520 10515 10517 10521 10521 10521 10520 10526 10532 10533 10538 10538 10536 10540 10541 10538 10540 10542 10542 10541 10541 10544 10545 10547 10548 10548 10548 10549 10549 10550 10551 10554 10556 10556 10557 10559 10561 10563 10565 10567 10569 10571 10573 10575 10577 10579 10581 10581 10580 10581 10582 10582 10583 10584 10585 10587 10588 10590 10591 10593 10596 10597 10599 10602 10604 10606 10609 10611 10613 10615 10617
10506 10505 10500 10503 10506 10505 10507 10512 10514 10516 10514 10511 10511 10513 10512 10509 10507 10510 10512 10512 10511 10512 10519 10523 10524 10529 10530 10529 10532 10531 10529 10530 10529 10531 10531 10531 10534 10536 10537 10538 10538 10539 10540 10540 10541 10542 10544 10546 10548 10548 10550 10553 10555 10556 10559 10561 10563 10565 10567 10569 10570 10572 10573 10572 10573 10574 10574 10575 10576 10577 10578 10579 10581 10583 10585 10587 10589 10591 10593 10595 10598 10600 10602 10604 10606 10608
10496 10495 10491 10493 10496 10495 10496 10502 10504 10505 10505 10502 10502 10502 10499 10499 10502 10502 10500 10501 10502 10503 10510 10513 10515 10521 10523 10524 10523 10518 10519 10522 10518 10519 10522 10522 10525 10527 10528 10529 10529 10530 10530 10531 10532 10532 10534 10537 10538 10540 10541 10543 10546 10548 10549 10551 10554 10556 10558 10560 10561 10562 10564 10563 10564 10565 10566 10567 10568 10569 10570 10571 10572 10574 10576 10578 10580 10582 10585 10587 10589 10591 10593 10595 10596 10598
10485 10486 10483 10483 10486 10485 10486 10491 10492 10493 10494 10492 10490 10490 10489 10490 10493 10492 10488 10490 10492 10493 10499 10504 10506 10510 10515 10518 10516 10508 10507 10511 10510 10509 10511 10513 10516 10518 10519 10520 10520 10521 10521 10522 10523 10523 10525 10527 10529 10531 10532 10533 10536 10539 10540 10542 10545 10548 10549 10550 10551 10553 10555 10555 10555 10557 10557 10558 10559 10560 10561 10562 10564 10566 10567 10569 10571 10573 10576 10578 10580 10582 10583 10585 10586 10588
10472 10475 10477 10476 10474 10475 10476 10479 10481 10480 10481 10481 10479 10480 10481 10479 10480 10480 10476 10477 10482 10483 10488 10493 10495 10501 10507 10508 10505 10499 10497 10498 10500 10501 10501 10502 10506 10508 10510 10511 10512 10512 10512 10512 10513 10514 10516 10518 10519 10521 10522 10524 10527 10530 10532 10534 10536 10538 10539 10540 10542 10544 10545 10545 10546 10547 10548 10548 10550 10551 10552 10554 10555 10556 10558 10560 10562 10564 10567 10569 10570 10572 10574 10575 10576 10578
10461 10465 10471 10469 10464 10465 10467 10466 10468 10469 10468 10467 10467 10469 10471 10468 10467 10467 10466 10469 10470 10470 10474 10479 10484 10494 10500 10496 10491 10491 10490 10488 10488 10491 10492 10493 10495 10497 10499 10501 10502 10502 10502 10501 10502 10504 10506 10507 10509 10511 10513 10514 10518 10521 10524 10526 10526 10527 10529 10531 10532 10534 10535 10536 10536 10537 10538 10538 10539 10541 10542 10544 10545 10546 10548 10550 10553 10555 10557 10558 10560 10562 10564 10565 10567 10569
10452 10454 10460 10462 10456 10456 10458 10456 10456 10458 10456 10454 10454 10456 10457 10456 10454 10453 10457 10462 10457 10453 10460 10466 10471 10485 10491 10484 10479 10480 10481 10480 10478 10478 10481 10482 10484 10486 10486 10488 10491 10491 10492 10492 10492 10494 10496 10497 10499 10501 10502 10504 10508 10512 10514 10516 10516 10517 10519 10520 10522 10523 10524 10526 10526 10526 10528 10529 10530 10531 10532 10534 10535 10536 10538 10541 10543 10545 10546 10548 10550 10552 10553 10555 10557 10560
10443 10443 10445 10450 10449 10447 10449 10447 10446 10447 10444 10441 10441 10443 10442 10441 10443 10442 10445 10451 10446 10444 10452 10453 10455 10472 10478 10471 10468 10468 10469 10471 10470 10468 10469 10470 10473 10475 10473 10476 10479 10480 10481 10482 10482 10484 10485 10487 10490 10490 10491 10494 10498 10501 10504 10505 10506 10508 10509 10510 10511 10512 10514 10515 10516 10517 10518 10519 10520 10521 10522 10523 10525 10527 10529 10531 10533 10535 10536 10538 10540 10541 10543 10545 10547 10550
10433 10432 10431 10437 10440 10439 10439 10438 10437 10435 10432 10429 10429 10430 10429 10429 10433 10432 10432 10436 10434 10437 10443 10437 10438 10456 10462 10457 10457 10456 10455 10460 10461 10460 10460 10460 10462 10462 10461 10463 10466 10468 10472 10471 10470 10474 10476 10477 10479 10479 10481 10484 10486 10489 10493 10494 10496 10498 10498 10500 10501 10502 10503 10504 10505 10507 10508 10509 10510 10510 10512 10513 10515 10517 10519 10521 10522 10524 10526 10527 10529 10531 10533 10535 10537 10539
10422 10421 10420 10424 10428 10431 10430 10428 10426 10424 10419 10417 10417 10418 10419 10420 10421 10419 10420 10419 10418 10426 10431 10422 10423 10440 10445 10443 10446 10445 10442 10446 10450 10451 10451 10451 10451 10449 10448 10451 10453 10455 10460 10460 10458 10461 10465 10467 10468 10468 10470 10473 10474 10478 10482 10482 10485 10488 10487 10488 10491 10491 10492 10494 10495 10496 10498 10499 10500 10500 10502 10504 10505 10507 10508 10510 10512 10514 10515 10517 10518 10521 10523 10524 10526 10527
10411 10411 10410 10412 10415 10420 10422 10418 10414 10410 10408 10407 10407 10409 10410 10410 10409 10407 10406 10403 10405 10415 10415 10406 10409 10423 10429 10430 10434 10435 10432 10433 10438 10440 10440 10440 10439 10436 10435 10439 10442 10441 10445 10448 10448 10449 10452 10454 10457 10457 10459 10462 10464 10467 10470 10470 10473 10477 10478 10478 10480 10481 10482 10483 10484 10485 10487 10489 10489 10490 10492 10493 10494 10496 10497 10499 10501 10503 10504 10506 10508 10510 10511 10512 10514 10515
10401 10401 10400 10400 10403 10408 10410 10408 10402 10397 10395 10395 10397 10400 10401 10401 10401 10396 10390 10391 10396 10399 10396 10395 10396 10403 10414 10420 10421 10423 10423 10423 10425 10426 10428 10429 10429 10427 10425 10425 10428 10428 10432 10436 10437 10438 10440 10441 10444 10446 10447 10451 10454 10455 10458 10460 10461 10465 10468 10469 10470 10471 10471 10471 10472 10474 10475 10477 10478 10479 10481 10482 10483 10484 10486 10488 10490 10491 10492 10494 10496 10498 10499 10500 10502 10504
10391 10392 10391 10389 10393 10397 10398 10397 10392 10386 10383 10384 10387 10392 10393 10391 10390 10384 10378 10381 10385 10379 10378 10386 10385 10383 10396 10408 10410 10411 10410 10409 10411 10411 10411 10415 10416 10416 10414 10411 10413 10415 10420 10425 10424 10424 10426 10428 10431 10434 10435 10440 10443 10443 10446 10449 10450 10453 10456 10457 10459 10460 10460 10460 10461 10462 10463 10465 10466 10468 10469 10470 10471 10473 10474 10476 10478 10479 10480 10483 10484 10486 10487 10489 10491 10493
10381 10383 10381 10378 10382 10388 10388 10386 10382 10376 10372 10373 10377 10382 10383 10381 10378 10373 10369 10369 10368 10360 10362 10373 10373 10371 10381 10392 10398 10400 10394 10392 10395 10394 10393 10398 10403 10404 10401 10400 10402 10402 10405 10412 10412 10410 10413 10414 10416 10421 10425 10428 10429 10430 10434 10437 10439 10442 10443 10445 10447 10448 10449 10449 10449 10450 10451 10453 10454 10455 10456 10458 10460 10461 10463 10464 10466 10467 10468 10471 10472 10474 10475 10477 10478 10480
10370 10373 10371 10367 10372 10378 10378 10374 10369 10364 10361 10362 10368 10374 10375 10371 10366 10362 10358 10355 10351 10346 10348 10355 10358 10362 10371 10376 10380 10383 10380 10376 10377 10378 10381 10386 10390 10392 10390 10389 10392 10391 10392 10397 10398 10397 10400 10402 10402 10407 10413 10415 10414 10417 10422 10423 10426 10429 10431 10433 10435 10436 10436 10437 10438 10438 10440 10441 10442 10443 10444 10446 10448 10449 10451 10452 10453 10455 10456 10458 10459 10461 10462 10464 10465 10467
10360 10363 10361 10356 10360 10369 10369 10360 10354 10353 10349 10351 10361 10368 10365 10357 10351 10347 10344 10342 10339 10337 10339 10339 10339 10350 10362 10363 10361 10366 10369 10365 10363 10367 10372 10374 10376 10378 10378 10379 10381 10382 10383 10384 10383 10383 10386 10389 10390 10393 10399 10402 10402 10404 10408 10410 10412 10417 10419 10420 10422 10423 10424 10426 10427 10427 10428 10428 10429 10430 10431 10433 10435 10437 10439 10440 10441 10442 10443 10444 10445 10447 10448 10450 10451 10453
10350 10351 10351 10345 10346 10360 10360 10345 10340 10341 10338 10345 10359 10360 10348 10337 10333 10333 10332 10332 10330 10329 10330 10328 10327 10337 10349 10348 10346 10352 10357 10355 10352 10355 10359 10361 10363 10363 10365 10368 10370 10372 10373 10373 10373 10372 10373 10375 10376 10378 10385 10391 10391 10392 10395 10397 10400 10404 10406 10406 10408 10411 10413 10414 10415 10415 10416 10416 10417 10418 10419 10420 10422 10425 10426 10427 10428 10428 10429 10430 10431 10432 10434 10436 10438 10440
10339 10338 10340 10333 10332 10347 10349 10333 10326 10326 10330 10345 10353 10341 10326 10322 10322 10323 10323 10323 10322 10319 10319 10319 10320 10325 10332 10334 10334 10337 10342 10343 10343 10344 10346 10350 10350 10348 10350 10357 10361 10363 10362 10362 10363 10362 10360 10362 10363 10365 10372 10377 10378 10380 10383 10386 10388 10391 10393 10393 10394 10398 10401 10402 10402 10403 10403 10403 10404 10405 10406 10407 10409 10411 10412 10413 10414 10414 10415 10416 10417 10419 10420 10422 10424 10426
10330 10327 10327 10321 10319 10331 10336 10324 10314 10315 10326 10340 10337 10322 10315 10315 10313 10312 10312 10312 10312 10309 10306 10306 10308 10313 10318 10320 10320 10321 10326 10331 10332 10332 10334 10336 10336 10337 10341 10347 10351 10352 10351 10350 10352 10350 10349 10350 10351 10353 10359 10362 10364 10370 10373 10375 10377 10378 10379 10381 10383 10386 10388 10389 10390 10390 10390 10391 10391 10392 10393 10394 10396 10397 10398 10399 10399 10400 10401 10402 10403 10405 10406 10408 10411 10412
10321 10316 10314 10310 10307 10314 10321 10314 10305 10308 10319 10323 10319 10313 10309 10303 10300 10300 10300 10300 10300 10298 10295 10293 10296 10302 10305 10305 10305 10307 10312 10316 10317 10319 10321 10323 10325 10329 10334 10336 10337 10338 10339 10339 10338 10338 10340 10341 10340 10343 10349 10350 10353 10359 10361 10364 10367 10366 10366 10369 10372 10375 10376 10376 10377 10378 10378 10378 10378 10379 10381 10382 10383 10384 10385 10385 10385 10386 10387 10387 10389 10390 10392 10394 10396 10398
10311 10306 10302 10300 10298 10301 10305 10301 10296 10300 10307 10309 10306 10302 10295 10290 10290 10289 10286 10288 10287 10283 10282 10285 10288 10290 10291 10291 10293 10295 10296 10300 10304 10308 10310 10313 10316 10321 10323 10322 10321 10323 10326 10326 10326 10328 10332 10332 10330 10335 10340 10341 10343 10347 10349 10352 10354 10353 10355 10359 10361 10363 10364 10364 10366 10367 10366 10365 10365 10367 10369 10370 10371 10372 10372 10372 10371 10372 10373 10373 10374 10376 10377 10380 10382 10383
10302 10297 10291 10288 10289 10290 10290 10288 10287 10287 10293 10297 10293 10288 10284 10281 10280 10275 10271 10275 10275 10270 10271 10279 10279 10276 10274 10276 10280 10282 10282 10286 10293 10298 10300 10302 10305 10309 10310 10309 10309 10310 10312 10316 10318 10321 10323 10323 10323 10328 10331 10331 10333 10337 10339 10342 10342 10343 10346 10349 10350 10352 10353 10354 10354 10355 10355 10354 10354 10356 10358 10359 10360 10360 10359 10359 10358 10359 10359 10360 10361 10363 10365 10367 10368 10369
10293 10287 10280 10277 10282 10282 10276 10275 10276 10274 10280 10284 10276 10273 10276 10272 10265 10260 10257 10261 10265 10263 10264 10269 10266 10260 10259 10264 10269 10270 10271 10276 10283 10287 10287 10288 10292 10297 10298 10298 10299 10298 10301 10308 10313 10313 10312 10313 10316 10319 10320 10322 10325 10328 10330 10332 10332 10333 10335 10338 10341 10342 10343 10344 10344 10343 10343 10344 10345 10346 10347 10348 10348 10348 10347 10347 10346 10347 10348 10348 10350 10351 10353 10355 10355 10356
10283 10277 10271 10267 10272 10273 10265 10262 10262 10261 10268 10271 10260 10257 10263 10259 10250 10245 10244 10249 10256 10256 10255 10255 10250 10245 10247 10254 10259 10260 10261 10267 10274 10275 10275 10277 10282 10285 10287 10289 10291 10291 10295 10302 10304 10303 10304 10305 10307 10310 10312 10315 10318 10319 10321 10323 10324 10323 10325 10328 10331 10333 10334 10335 10334 10332 10333 10335 10335 10336 10337 10337 10337 10337 10337 10337 10336 10337 10338 10338 10339 10341 10341 10342 10343 10344
10271 10268 10264 10259 10259 10259 10254 10251 10252 10251 10253 10256 10249 10244 10246 10245 10237 10232 10232 10238 10244 10243 10242 10241 10236 10235 10240 10245 10248 10250 10252 10258 10262 10263 10265 10268 10272 10276 10279 10282 10284 10285 10288 10293 10294 10295 10297 10298 10299 10302 10305 10307 10309 10311 10312 10314 10315 10314 10316 10319 10322 10323 10325 10324 10323 10322 10324 10325 10326 10326 10327 10327 10328 10328 10328 10328 10327 10328 10328 10328 10329 10330 10331 10331 10333 10334
10261 10258 10257 10253 10247 10244 10241 10240 10243 10242 10239 10240 10237 10231 10229 10230 10228 10224 10224 10228 10230 10229 10229 10228 10225 10227 10231 10235 10239 10241 10244 10248 10252 10253 10256 10260 10263 10266 10269 10273 10275 10276 10279 10284 10287 10287 10289 10291 10293 10295 10297 10299 10301 10302 10303 10305 10306 10307 10309 10311 10313 10314 10315 10314 10313 10314 10315 10316 10316 10317 10318 10319 10319 10320 10319 10319 10319 10318 10318 10318 10319 10320 10321 10321 10322 10322
10252 10250 10251 10245 10236 10232 10232 10232 10233 10232 10227 10226 10225 10219 10216 10219 10220 10217 10216 10218 10219 10218 10217 10217 10217 10218 10220 10225 10230 10233 10235 10239 10242 10245 10248 10252 10254 10255 10258 10264 10267 10267 10270 10275 10278 10278 10280 10284 10286 10287 10289 10292 10294 10295 10296 10297 10298 10299 10302 10304 10305 10306 10305 10304 10304 10306 10306 10307 10307 10309 10310 10311 10311 10311 10311 10310 10310 10309 10309 10309 10310 10311 10311 10312 10312 10312
10242 10239 10240 10237 10226 10220 10222 10225 10224 10222 10218 10215 10214 10210 10208 10210 10210 10207 10206 10208 10209 10209 10208 10208 10209 10210 10212 10216 10221 10224 10227 10230 10233 10236 10239 10242 10244 10246 10251 10256 10259 10260 10261 10266 10269 10271 10273 10277 10279 10280 10282 10285 10286 10288 10290 10290 10291 10293 10295 10296 10298 10298 10296 10296 10296 10297 10298 10298 10300 10301 10302 10304 10304 10303 10303 10302 10301 10301 10300 10301 10302 10302 10303 10303 10303 10303
10233 10227 10225 10226 10219 10210 10211 10214 10214 10211 10209 10206 10206 10204 10201 10200 10199 10197 10197 10197 10198 10200 10201 10201 10201 10204 10206 10208 10212 10216 10220 10222 10224 10227 10230 10233 10236 10239 10244 10248 10250 10252 10255 10258 10262 10264 10266 10269 10272 10273 10276 10278 10280 10283 10283 10282 10284 10286 10287 10289 10290 10289 10288 10289 10289 10290 10290 10292 10293 10295 10296 10296 10296 10296 10295 10294 10293 10293 10293 10293 10294 10294 10295 10296 10296 10296
10221 10215 10211 10213 10210 10205 10204 10205 10202 10200 10200 10199 10198 10197 10194 10192 10191 10189 10188 10187 10188 10191 10193 10193 10194 10197 10199 10201 10204 10209 10212 10214 10216 10219 10222 10226 10228 10230 10234 10238 10241 10244 10248 10252 10255 10256 10257 10261 10265 10267 10269 10272 10274 10276 10276 10275 10276 10279 10280 10282 10283 10282 10281 10282 10282 10283 10284 10286 10288 10289 10289 10289 10289 10289 10288 10286 10286 10286 10287 10287 10287 10287 10288 10289 10290 10290
10207 10203 10200 10200 10199 10197 10197 10195 10191 10190 10191 10190 10188 10188 10186 10184 10183 10181 10181 10181 10181 10183 10186 10186 10186 10190 10192 10194 10197 10201 10204 10206 10209 10211 10214 10218 10220 10221 10224 10229 10233 10237 10241 10244 10247 10248 10250 10255 10258 10260 10263 10265 10268 10269 10268 10267 10269 10273 10274 10275 10276 10275 10275 10275 10276 10277 10278 10281 10282 10283 10283 10283 10282 10281 10280 10280 10280 10281 10281 10281 10281 10282 10283 10284 10284 10284
10191 10189 10191 10190 10188 10189 10189 10185 10180 10181 10182 10180 10178 10178 10177 10175 10174 10175 10175 10176 10176 10177 10179 10180 10181 10183 10185 10187 10190 10195 10197 10199 10201 10205 10208 10210 10212 10214 10218 10222 10226 10230 10233 10236 10239 10241 10244 10247 10250 10253 10256 10259 10260 10261 10261 10260 10262 10267 10269 10269 10269 10269 10269 10269 10270 10271 10273 10275 10276 10277 10276 10276 10276 10275 10275 10275 10275 10275 10275 10275 10276 10277 10278 10278 10278 10278
10178 10179 10182 10179 10177 10180 10178 10173 10170 10172 10174 10171 10169 10169 10168 10166 10166 10168 10169 10170 10170 10171 10173 10175 10176 10177 10179 10180 10184 10189 10191 10192 10195 10198 10201 10203 10205 10208 10212 10216 10220 10223 10226 10229 10232 10235 10238 10241 10243 10247 10250 10252 10253 10253 10253 10254 10256 10260 10263 10263 10262 10262 10263 10263 10264 10266 10268 10270 10271 10271 10270 10270 10270 10270 10270 10270 10270 10270 10271 10271 10272 10273 10273 10273 10273 10274
10170 10174 10173 10167 10167 10170 10167 10161 10161 10164 10165 10163 10161 10161 10160 10159 10160 10162 10163 10164 10164 10165 10167 10169 10170 10171 10172 10175 10179 10183 10184 10185 10188 10192 10195 10197 10200 10203 10207 10210 10214 10217 10220 10222 10225 10229 10232 10234 10237 10241 10243 10245 10245 10245 10247 10249 10251 10255 10257 10256 10255 10256 10257 10257 10259 10261 10263 10265 10265 10265 10265 10264 10265 10265 10266 10265 10266 10266 10267 10267 10268 10269 10269 10269 10269 10270
10164 10167 10163 10159 10160 10160 10155 10152 10154 10156 10155 10154 10154 10154 10153 10153 10155 10157 10157 10158 10159 10160 10162 10163 10164 10165 10167 10170 10174 10177 10178 10180 10183 10187 10190 10192 10195 10199 10203 10206 10208 10211 10213 10216 10220 10223 10226 10228 10231 10234 10236 10238 10238 10239 10242 10245 10247 10249 10250 10250 10250 10251 10251 10252 10254 10256 10259 10260 10259 10259 10260 10260 10261 10261 10261 10261 10261 10262 10263 10264 10264 10265 10265 10265 10266 10267
10158 10157 10154 10152 10151 10148 10145 10145 10148 10149 10147 10146 10147 10148 10148 10148 10150 10150 10151 10153 10154 10155 10158 10158 10159 10160 10163 10165 10168 10171 10172 10175 10178 10181 10184 10187 10190 10194 10197 10199 10202 10204 10207 10211 10214 10217 10220 10223 10225 10227 10229 10231 10232 10234 10237 10240 10241 10243 10244 10244 10245 10245 10245 10247 10250 10252 10254 10254 10254 10254 10255 10256 10257 10257 10257 10257 10257 10258 10259 10260 10261 10262 10262 10262 10264 10265